| time (UTC) | temp C | wind direction | speed KPH | gust KPH | rain 1hr cm | rain 24hr cm | rain mn cm | humidity % | barometer mb |
| 20260504031022 | 7 | 188 | 4.8 | 14.5 | 0.00 | 0.36 | 0.36 | 97 | 1004.5 |
| 20260504030520 | 7 | 204 | 6.4 | 19.3 | 0.00 | 0.36 | 0.36 | 97 | 1004.5 |
| 20260504030016 | 7 | 221 | 9.7 | 17.7 | 0.00 | 0.36 | 0.36 | 98 | 1004.6 |
| 20260504025513 | 7 | 231 | 12.9 | 19.3 | 0.05 | 0.36 | 0.36 | 98 | 1004.6 |
| 20260504025009 | 7 | 191 | 6.4 | 17.7 | 0.05 | 0.36 | 0.36 | 98 | 1004.8 |
| 20260504024507 | 7 | 187 | 11.3 | 17.7 | 0.00 | 0.33 | 0.33 | 98 | 1004.7 |
| 20260504024004 | 7 | 228 | 12.9 | 17.7 | 0.00 | 0.33 | 0.33 | 99 | 1004.8 |
| 20260504023500 | 7 | 202 | 8.0 | 14.5 | 0.05 | 0.33 | 0.33 | 99 | 1005.0 |
| 20260504022955 | 7 | 193 | 8.0 | 16.1 | 0.13 | 0.33 | 0.33 | 99 | 1004.8 |
| 20260504022452 | 7 | 214 | 16.1 | 19.3 | 0.00 | 0.33 | 0.33 | 98 | 1005.1 |
| 20260504021949 | 7 | 224 | 8.0 | 14.5 | 0.00 | 0.33 | 0.33 | 98 | 1005.1 |
| 20260504021446 | 7 | 247 | 4.8 | 16.1 | 0.05 | 0.33 | 0.33 | 98 | 1005.3 |
| 20260504020943 | 7 | 244 | 14.5 | 16.1 | 0.18 | 0.33 | 0.33 | 97 | 1005.3 |
| 20260504020440 | 7 | 250 | 12.9 | 16.1 | 0.23 | 0.30 | 0.30 | 98 | 1005.3 |
| 20260504015937 | 7 | 219 | 8.0 | 19.3 | 0.18 | 0.28 | 0.28 | 98 | 1005.7 |
| 20260504015432 | 7 | 226 | 12.9 | 20.9 | 0.30 | 0.28 | 0.28 | 98 | 1005.7 |
| 20260504014928 | 7 | 242 | 19.3 | 25.7 | 0.30 | 0.25 | 0.25 | 98 | 1005.6 |
| 20260504014425 | 7 | 239 | 17.7 | 29.0 | 0.23 | 0.23 | 0.23 | 97 | 1005.7 |
| 20260504013922 | 7 | 226 | 14.5 | 37.0 | 0.23 | 0.20 | 0.20 | 96 | 1005.5 |
| 20260504013420 | 7 | 229 | 11.3 | 40.2 | 0.23 | 0.18 | 0.18 | 95 | 1005.5 |
| 20260504012916 | 7 | 245 | 17.7 | 32.2 | 0.18 | 0.15 | 0.15 | 95 | 1005.2 |
| 20260504012414 | 7 | 221 | 14.5 | 40.2 | 0.05 | 0.15 | 0.15 | 93 | 1005.4 |
| 20260504011911 | 7 | 236 | 14.5 | 32.2 | 0.05 | 0.13 | 0.13 | 93 | 1005.2 |
| 20260504011408 | 7 | 233 | 20.9 | 30.6 | 0.13 | 0.13 | 0.13 | 92 | 1005.2 |
| 20260504010904 | 7 | 228 | 19.3 | 33.8 | 0.05 | 0.13 | 0.13 | 93 | 1005.0 |
| 20260504010355 | 7 | 235 | 14.5 | 32.2 | 0.00 | 0.10 | 0.10 | 92 | 1005.0 |
| 20260504005851 | 7 | 239 | 14.5 | 30.6 | 0.00 | 0.10 | 0.10 | 90 | 1004.9 |
| 20260504005348 | 7 | 245 | 16.1 | 22.5 | 0.00 | 0.10 | 0.10 | 91 | 1005.0 |
| 20260504004845 | 7 | 239 | 19.3 | 24.1 | 0.00 | 0.10 | 0.10 | 92 | 1005.0 |
| 20260504004343 | 7 | 223 | 12.9 | 29.0 | 0.00 | 0.10 | 0.10 | 92 | 1005.0 |
| 20260504003839 | 7 | 250 | 20.9 | 25.7 | 0.00 | 0.10 | 0.10 | 94 | 1004.7 |
| 20260504003336 | 7 | 218 | 19.3 | 25.7 | 0.00 | 0.10 | 0.10 | 95 | 1005.0 |
| 20260504002833 | 7 | 197 | 11.3 | 17.7 | 0.00 | 0.10 | 0.10 | 96 | 1005.1 |
| 20260504002329 | 7 | 212 | 14.5 | 22.5 | 0.00 | 0.10 | 0.10 | 96 | 1005.0 |
| 20260504001827 | 6 | 218 | 14.5 | 24.1 | 0.00 | 0.10 | 0.10 | 96 | 1004.9 |
| 20260504001324 | 6 | 250 | 14.5 | 20.9 | 0.00 | 0.10 | 0.10 | 96 | 1005.0 |
| 20260504000821 | 6 | 243 | 8.0 | 14.5 | 0.00 | 0.10 | 0.10 | 97 | 1005.1 |
| 20260504000318 | 6 | 211 | 9.7 | 16.1 | 0.00 | 0.10 | 0.10 | 97 | 1005.1 |
| 20260503235816 | 6 | 189 | 11.3 | 24.1 | 0.00 | 0.10 | 0.10 | 96 | 1005.0 |
| 20260503235313 | 6 | 210 | 12.9 | 14.5 | 0.00 | 0.10 | 0.10 | 97 | 1004.9 |
| 20260503234810 | 6 | 208 | 11.3 | 29.0 | 0.00 | 0.10 | 0.10 | 97 | 1005.0 |
| 20260503234308 | 6 | 241 | 19.3 | 24.1 | 0.00 | 0.10 | 0.10 | 97 | 1005.2 |
| 20260503233806 | 6 | 217 | 12.9 | 37.0 | 0.05 | 0.10 | 0.10 | 96 | 1004.9 |
| 20260503233301 | 6 | 202 | 14.5 | 30.6 | 0.18 | 0.10 | 0.10 | 97 | 1005.2 |
| 20260503232758 | 6 | 175 | 11.3 | 22.5 | 0.13 | 0.10 | 0.10 | 97 | 1004.9 |
| 20260503232256 | 6 | 208 | 12.9 | 27.4 | 0.00 | 0.08 | 0.08 | 97 | 1005.0 |
| 20260503231754 | 6 | 191 | 14.5 | 17.7 | 0.00 | 0.08 | 0.08 | 96 | 1005.2 |
| 20260503231250 | 6 | 252 | 17.7 | 24.1 | 0.00 | 0.08 | 0.08 | 96 | 1005.2 |
| 20260503230746 | 6 | 195 | 11.3 | 20.9 | 0.00 | 0.08 | 0.08 | 96 | 1005.2 |
| 20260503230244 | 6 | 231 | 11.3 | 30.6 | 0.00 | 0.08 | 0.08 | 96 | 1005.4 |
| 20260503225741 | 6 | 211 | 27.4 | 43.5 | 0.05 | 0.08 | 0.08 | 95 | 1005.4 |
| 20260503225241 | 6 | 230 | 33.8 | 41.8 | 0.05 | 0.08 | 0.08 | 95 | 1005.6 |
| 20260503224738 | 6 | 224 | 11.3 | 24.1 | 0.05 | 0.08 | 0.08 | 94 | 1005.4 |
| 20260503224236 | 6 | 244 | 9.7 | 19.3 | 0.05 | 0.08 | 0.08 | 94 | 1005.4 |
| 20260503223733 | 6 | 221 | 19.3 | 20.9 | 0.05 | 0.05 | 0.05 | 93 | 1005.4 |
| 20260503223231 | 6 | 212 | 9.7 | 17.7 | 0.13 | 0.05 | 0.05 | 93 | 1005.6 |
| 20260503222727 | 6 | 228 | 11.3 | 20.9 | 0.05 | 0.05 | 0.05 | 91 | 1005.7 |
| 20260503222225 | 6 | 225 | 8.0 | 17.7 | 0.13 | 0.05 | 0.05 | 90 | 1005.7 |
| 20260503221723 | 6 | 236 | 6.4 | 14.5 | 0.13 | 0.03 | 0.03 | 89 | 1005.7 |
| 20260503221221 | 7 | 241 | 11.3 | 17.7 | 0.13 | 0.03 | 0.03 | 87 | 1005.7 |
| 20260503220717 | 7 | 245 | 11.3 | 17.7 | 0.05 | 0.00 | 0.00 | 84 | 1005.7 |
| 20260503220214 | 7 | 226 | 14.5 | 22.5 | 0.00 | 0.00 | 0.00 | 82 | 1005.7 |
| 20260503215710 | 7 | 247 | 11.3 | 17.7 | 0.00 | 0.00 | 0.00 | 80 | 1005.7 |
| 20260503215207 | 8 | 247 | 17.7 | 27.4 | 0.00 | 0.00 | 0.00 | 79 | 1005.7 |
| 20260503214705 | 8 | 202 | 9.7 | 35.4 | 0.00 | 0.00 | 0.00 | 77 | 1005.7 |
| 20260503214201 | 8 | 221 | 19.3 | 35.4 | 0.00 | 0.00 | 0.00 | 71 | 1005.7 |
| 20260503213700 | 9 | 233 | 16.1 | 41.8 | 0.00 | 0.00 | 0.00 | 67 | 1005.6 |
| 20260503213157 | 10 | 217 | 17.7 | 38.6 | 0.00 | 0.00 | 0.00 | 64 | 1005.4 |
| 20260503212654 | 10 | 223 | 29.0 | 35.4 | 0.00 | 0.00 | 0.00 | 60 | 1005.4 |
| 20260503212151 | 10 | 222 | 24.1 | 45.1 | 0.00 | 0.00 | 0.00 | 58 | 1005.0 |
| 20260503211649 | 11 | 235 | 27.4 | 35.4 | 0.00 | 0.00 | 0.00 | 56 | 1005.1 |
| 20260503211144 | 10 | 229 | 20.9 | 41.8 | 0.00 | 0.00 | 0.00 | 54 | 1005.2 |
| 20260503210636 | 11 | 230 | 22.5 | 32.2 | 0.00 | 0.00 | 0.00 | 53 | 1005.2 |
| 20260503210132 | 11 | 234 | 20.9 | 25.7 | 0.00 | 0.00 | 0.00 | 50 | 1005.0 |
| 20260503205622 | 11 | 227 | 24.1 | 40.2 | 0.00 | 0.00 | 0.00 | 48 | 1005.3 |
| 20260503205119 | 11 | 180 | 6.4 | 20.9 | 0.00 | 0.00 | 0.00 | 48 | 1005.4 |
| 20260503204616 | 10 | 212 | 12.9 | 27.4 | 0.00 | 0.00 | 0.00 | 47 | 1005.3 |
| 20260503204113 | 11 | 245 | 6.4 | 24.1 | 0.00 | 0.00 | 0.00 | 47 | 1005.3 |
| 20260503203609 | 11 | 221 | 11.3 | 32.2 | 0.00 | 0.00 | 0.00 | 46 | 1005.2 |
| 20260503203107 | 11 | 221 | 11.3 | 27.4 | 0.00 | 0.00 | 0.00 | 46 | 1005.3 |
| 20260503202605 | 11 | 190 | 17.7 | 38.6 | 0.00 | 0.00 | 0.00 | 45 | 1005.5 |
| 20260503202102 | 11 | 247 | 11.3 | 32.2 | 0.00 | 0.00 | 0.00 | 47 | 1005.3 |
| 20260503201600 | 12 | 244 | 8.0 | 17.7 | 0.00 | 0.00 | 0.00 | 45 | 1005.4 |
| 20260503201058 | 11 | 138 | 4.8 | 11.3 | 0.00 | 0.00 | 0.00 | 49 | 1005.3 |
| 20260503200554 | 11 | 306 | 4.8 | 11.3 | 0.00 | 0.00 | 0.00 | 50 | 1005.5 |
| 20260503200050 | 10 | 356 | 1.6 | 9.7 | 0.00 | 0.00 | 0.00 | 52 | 1005.8 |
| 20260503195548 | 10 | 202 | 9.7 | 24.1 | 0.00 | 0.00 | 0.00 | 52 | 1006.0 |
| 20260503195044 | 10 | 235 | 22.5 | 29.0 | 0.00 | 0.00 | 0.00 | 51 | 1006.1 |
| 20260503194542 | 10 | 252 | 12.9 | 30.6 | 0.00 | 0.00 | 0.00 | 50 | 1006.3 |
| 20260503194041 | 10 | 261 | 24.1 | 27.4 | 0.00 | 0.00 | 0.00 | 47 | 1006.2 |
| 20260503193538 | 10 | 257 | 17.7 | 27.4 | 0.00 | 0.00 | 0.00 | 48 | 1006.4 |
| 20260503193033 | 11 | 253 | 19.3 | 27.4 | 0.00 | 0.00 | 0.00 | 50 | 1006.5 |
| 20260503192530 | 10 | 251 | 30.6 | 40.2 | 0.00 | 0.00 | 0.00 | 48 | 1006.6 |
| 20260503192026 | 10 | 265 | 12.9 | 37.0 | 0.00 | 0.00 | 0.00 | 46 | 1006.8 |
| 20260503191523 | 11 | 197 | 8.0 | 27.4 | 0.00 | 0.00 | 0.00 | 44 | 1006.7 |
| 20260503191019 | 11 | 229 | 24.1 | 32.2 | 0.00 | 0.00 | 0.00 | 43 | 1006.8 |
| 20260503190516 | 11 | 262 | 14.5 | 24.1 | 0.00 | 0.00 | 0.00 | 43 | 1006.9 |
| 20260503190014 | 10 | 230 | 30.6 | 35.4 | 0.00 | 0.00 | 0.00 | 42 | 1006.8 |
| 20260503185510 | 11 | 257 | 17.7 | 33.8 | 0.00 | 0.00 | 0.00 | 42 | 1007.0 |
| 20260503185009 | 11 | 225 | 9.7 | 27.4 | 0.00 | 0.00 | 0.00 | 43 | 1006.8 |
| 20260503184506 | 10 | 212 | 16.1 | 29.0 | 0.00 | 0.00 | 0.00 | 44 | 1007.1 |
| 20260503184002 | 11 | 222 | 17.7 | 25.7 | 0.00 | 0.00 | 0.00 | 43 | 1007.2 |
| 20260503183459 | 11 | 241 | 11.3 | 29.0 | 0.00 | 0.00 | 0.00 | 45 | 1006.9 |
| 20260503182956 | 10 | 197 | 9.7 | 25.7 | 0.00 | 0.00 | 0.00 | 45 | 1006.9 |
| 20260503182455 | 10 | 216 | 14.5 | 33.8 | 0.00 | 0.00 | 0.00 | 46 | 1006.9 |
| 20260503181952 | 11 | 217 | 9.7 | 22.5 | 0.00 | 0.00 | 0.00 | 49 | 1007.3 |
| 20260503181449 | 10 | 228 | 9.7 | 17.7 | 0.00 | 0.00 | 0.00 | 49 | 1007.3 |
| 20260503180944 | 10 | 238 | 17.7 | 32.2 | 0.00 | 0.00 | 0.00 | 48 | 1007.1 |
| 20260503180443 | 10 | 262 | 12.9 | 30.6 | 0.00 | 0.00 | 0.00 | 49 | 1007.3 |
| 20260503175940 | 10 | 181 | 9.7 | 24.1 | 0.00 | 0.00 | 0.00 | 49 | 1007.4 |
| 20260503175438 | 10 | 192 | 4.8 | 14.5 | 0.00 | 0.00 | 0.00 | 49 | 1007.5 |
| 20260503174938 | 10 | 231 | 17.7 | 32.2 | 0.00 | 0.00 | 0.00 | 49 | 1007.3 |
| 20260503174437 | 10 | 239 | 24.1 | 33.8 | 0.00 | 0.00 | 0.00 | 48 | 1007.5 |
| 20260503173932 | 10 | 238 | 8.0 | 27.4 | 0.00 | 0.00 | 0.00 | 46 | 1007.3 |
| 20260503173428 | 11 | 179 | 8.0 | 22.5 | 0.00 | 0.00 | 0.00 | 47 | 1007.3 |
| 20260503172925 | 10 | 272 | 14.5 | 20.9 | 0.00 | 0.00 | 0.00 | 46 | 1007.7 |
| 20260503172423 | 10 | 254 | 24.1 | 35.4 | 0.00 | 0.00 | 0.00 | 45 | 1007.8 |
| 20260503171919 | 10 | 251 | 19.3 | 25.7 | 0.00 | 0.00 | 0.00 | 46 | 1007.5 |
| 20260503171416 | 10 | 288 | 9.7 | 24.1 | 0.00 | 0.00 | 0.00 | 45 | 1008.0 |
| 20260503170913 | 10 | 251 | 16.1 | 30.6 | 0.00 | 0.00 | 0.00 | 46 | 1007.9 |
| 20260503170409 | 9 | 232 | 16.1 | 27.4 | 0.00 | 0.00 | 0.00 | 46 | 1008.0 |
| 20260503150801 | 7 | 217 | 11.3 | 27.4 | 0.00 | 0.00 | 0.00 | 42 | 1009.0 |
| 20260503150257 | 8 | 235 | 16.1 | 19.3 | 0.00 | 0.00 | 0.00 | 42 | 1009.1 |
| 20260503140222 | 7 | 198 | 9.7 | 17.7 | 0.00 | 0.00 | 0.00 | 46 | 1009.5 |
| 20260503131151 | 6 | 274 | 6.4 | 11.3 | 0.00 | 0.00 | 0.00 | 53 | 1010.0 |
| 20260503130649 | 5 | 269 | 4.8 | 12.9 | 0.00 | 0.00 | 0.00 | 54 | 1010.0 |
| 20260503130146 | 5 | 281 | 11.3 | 12.9 | 0.00 | 0.00 | 0.00 | 54 | 1010.0 |
| 20260503120112 | 3 | 250 | 6.4 | 9.7 | 0.00 | 0.00 | 0.00 | 59 | 1010.0 |
| 20260503110539 | 1 | 195 | 4.8 | 4.8 | 0.00 | 0.00 | 0.00 | 60 | 1010.0 |
| 20260503090426 | 0 | 204 | 3.2 | 8.0 | 0.00 | 0.00 | 0.00 | 67 | 1010.3 |
| 20260503081347 | 0 | 237 | 4.8 | 6.4 | 0.00 | 0.00 | 0.00 | 65 | 1010.3 |
| 20260503080843 | 0 | 232 | 4.8 | 8.0 | 0.00 | 0.00 | 0.00 | 64 | 1010.5 |
| 20260503080341 | 0 | 228 | 3.2 | 8.0 | 0.00 | 0.00 | 0.00 | 63 | 1010.1 |
| 20260503072817 | 0 | 249 | 4.8 | 8.0 | 0.00 | 0.00 | 0.00 | 66 | 1010.3 |
| 20260503072314 | 0 | 253 | 1.6 | 6.4 | 0.00 | 0.00 | 0.00 | 66 | 1010.4 |
| 20260503071810 | 0 | 253 | 4.8 | 4.8 | 0.00 | 0.00 | 0.00 | 66 | 1010.2 |
| 20260503071308 | 0 | 257 | 3.2 | 4.8 | 0.00 | 0.00 | 0.00 | 67 | 1010.4 |
| 20260503070803 | 0 | 316 | 4.8 | 4.8 | 0.00 | 0.00 | 0.00 | 67 | 1010.3 |
| 20260503070302 | 0 | 273 | 4.8 | 6.4 | 0.00 | 0.00 | 0.00 | 67 | 1010.4 |
| 20260503060227 | 0 | 341 | 3.2 | 6.4 | 0.00 | 0.00 | 0.00 | 67 | 1010.8 |
| 20260503054713 | 0 | 289 | 6.4 | 8.0 | 0.00 | 0.00 | 0.00 | 67 | 1011.0 |
| 20260503054211 | 0 | 335 | 4.8 | 8.0 | 0.00 | 0.00 | 0.00 | 67 | 1011.1 |
| 20260503053709 | 0 | 311 | 3.2 | 6.4 | 0.00 | 0.00 | 0.00 | 67 | 1011.0 |
| 20260503053207 | 0 | 309 | 4.8 | 8.0 | 0.00 | 0.00 | 0.00 | 66 | 1011.0 |
| 20260503052703 | 0 | 337 | 4.8 | 8.0 | 0.00 | 0.00 | 0.00 | 66 | 1011.0 |
| 20260503052159 | 0 | 318 | 4.8 | 6.4 | 0.00 | 0.00 | 0.00 | 66 | 1011.1 |
| 20260503051655 | 0 | 284 | 4.8 | 6.4 | 0.00 | 0.00 | 0.00 | 67 | 1011.2 |
| 20260503051153 | 0 | 280 | 6.4 | 8.0 | 0.00 | 0.00 | 0.00 | 67 | 1011.3 |
| 20260503050649 | 0 | 272 | 4.8 | 6.4 | 0.00 | 0.00 | 0.00 | 68 | 1011.3 |
| 20260503050146 | 0 | 259 | 4.8 | 6.4 | 0.00 | 0.00 | 0.00 | 68 | 1011.3 |
| 20260503045643 | 0 | 280 | 4.8 | 6.4 | 0.00 | 0.00 | 0.00 | 68 | 1011.3 |
| 20260503045140 | 1 | 281 | 4.8 | 8.0 | 0.00 | 0.00 | 0.00 | 69 | 1011.5 |
| 20260503044637 | 1 | 263 | 6.4 | 8.0 | 0.00 | 0.00 | 0.00 | 69 | 1011.2 |
| 20260503044135 | 1 | 232 | 4.8 | 8.0 | 0.00 | 0.00 | 0.00 | 69 | 1011.4 |
| 20260503043631 | 1 | 255 | 6.4 | 8.0 | 0.00 | 0.00 | 0.00 | 69 | 1011.5 |
| 20260503043128 | 1 | 253 | 3.2 | 6.4 | 0.00 | 0.00 | 0.00 | 69 | 1011.5 |
| 20260503042624 | 1 | 283 | 3.2 | 6.4 | 0.00 | 0.00 | 0.00 | 69 | 1011.4 |
| 20260503042120 | 1 | 222 | 4.8 | 6.4 | 0.00 | 0.00 | 0.00 | 69 | 1011.5 |
| 20260503041617 | 1 | 245 | 3.2 | 8.0 | 0.00 | 0.00 | 0.00 | 68 | 1011.5 |
| 20260503041115 | 1 | 229 | 4.8 | 9.7 | 0.00 | 0.00 | 0.00 | 69 | 1011.5 |
| 20260503040612 | 1 | 262 | 4.8 | 8.0 | 0.00 | 0.00 | 0.00 | 69 | 1011.6 |
| 20260503040110 | 1 | 253 | 4.8 | 8.0 | 0.00 | 0.00 | 0.00 | 71 | 1011.3 |
| 20260503035606 | 1 | 248 | 4.8 | 8.0 | 0.00 | 0.00 | 0.00 | 70 | 1011.3 |
| 20260503035104 | 1 | 242 | 6.4 | 9.7 | 0.00 | 0.00 | 0.00 | 70 | 1011.2 |
| 20260503034601 | 1 | 224 | 4.8 | 12.9 | 0.00 | 0.00 | 0.00 | 71 | 1011.4 |
| 20260503034058 | 1 | 234 | 6.4 | 6.4 | 0.00 | 0.00 | 0.00 | 71 | 1011.6 |
| 20260503033555 | 1 | 242 | 6.4 | 8.0 | 0.00 | 0.00 | 0.00 | 70 | 1011.5 |
| 20260503033053 | 1 | 251 | 6.4 | 9.7 | 0.00 | 0.00 | 0.00 | 70 | 1011.5 |
| 20260503032551 | 1 | 232 | 3.2 | 6.4 | 0.00 | 0.00 | 0.00 | 70 | 1011.6 |
| 20260503032049 | 1 | 223 | 4.8 | 8.0 | 0.00 | 0.00 | 0.00 | 70 | 1011.3 |
| 20260503031546 | 1 | 249 | 4.8 | 8.0 | 0.00 | 0.00 | 0.00 | 70 | 1011.5 |